Voltar ao catálogo

COSMOS 839 DEB

AtivoUNKNOWN
NORAD 10450·DEBRIS·🇷🇺 Russia

Lançado Jul 8, 1976 de Plesetsk Cosmodrome

Loading…

Próximas Passagens (próximas 24 horas)

TLE

AtualizadoSource: Space-Track

Época: Sep 14, 2026, 09:43 UTC

1 10450U 76067AB  26257.40552061 -.00000092  00000-0 -85661-4 0  9994
2 10450  65.7450  55.1434 0748730  17.1886 345.3053 12.46855052283757

Acompanhe COSMOS 839 DEB em tempo real com AllMySat

Download on the App Store